OpenBCM V1.13 (Linux)

Packet Radio Mailbox

DB0FHN

[JN59NK Nuernberg]

 Login: GUEST





  
LU1HVK > KEP      18.09.19 08:34l 242 Lines 12024 Bytes #999 (0) @ WW
BID : 31973_LU1HVK
Read: DJ6UX DF7EAV GUEST
Subj: TLE 18 09
Path: DB0FHN<DB0BLO<DB0ERF<DB0RES<DB0OVN<DB0GOS<ON0AR<VK6HGR<GB7CIP<GB7YEW<
      N7HPX<LU1HVK
Sent: 190918/0523Z 31973@LU1HVK.2594.CBA.ARG.SA LinBPQ6.0.18

                         _    _   _ _ _   ___     ___  __
                        | |  | | | / | | | \ \   / / |/ /
                        | |  | | | | | |_| |\ \ / /| ' /
                        | |__| |_| | |  _  | \ V / | . \
                        |_____\___/|_|_| |_|  \_/  |_|\_\

     BBS/NODO - CORDOBA (LEONES-FF87UH) - LU1HVK-4 NODO - LU1HVK-3 APRS

+----------------------------------------------------------------------------+
OSCAR 7
1  7530U 74089B   19260.84041771 -.00000045  00000-0 -24412-5 0  9992
2  7530 101.7544 227.5997 0012065 169.4710 257.1807 12.53639774 51948
OSCAR 11 (UoSAT 2)
1 14781U 84021B   19260.84934053 +.00000043 +00000-0 +11441-4 0  9992
2 14781 097.6070 281.2355 0009138 029.6489 330.5241 14.83106279891273
OSCAR 19 (LUSAT)
1 20442U 90005G   19260.79331593 +.00000001 +00000-0 +16544-4 0  9999
2 20442 098.6541 202.6654 0010725 238.6045 121.4090 14.32932813549365
EYESAT A
1 22825U 93061C   19260.87623186 -.00000020 +00000-0 +10213-4 0  9991
2 22825 098.9104 251.6233 0009509 092.9514 267.2755 14.30066366354716
ITAMSAT
1 22826U 93061D   19260.85665152 -.00000015 +00000-0 +11984-4 0  9999
2 22826 098.9044 251.5832 0010036 083.0420 277.1902 14.30400379354932
RADIO ROSTO
1 23439U 94085A   19260.77854922 -.00000046 +00000-0 -10364-3 0  9998
2 23439 064.8188 328.8274 0145478 095.5444 266.2091 11.27568150018160
JAS 2
1 24278U 96046B   19260.87126274 -.00000009 +00000-0 +27454-4 0  9999
2 24278 098.5514 041.9598 0350412 003.8037 356.5644 13.53092874139883
TECHSAT 1B
1 25397U 98043D   19260.84402902 -.00000012  00000-0  14174-4 0  9992
2 25397  98.6934 199.9045 0002206 110.9937 249.1478 14.23670491100849
ISS (ZARYA)
1 25544U 98067A   19261.09738935  .00000552  00000-0  17670-4 0  9990
2 25544  51.6433 260.4565 0007522  59.8133 335.7009 15.50091856189675
PCSAT
1 26931U 01043C   19260.87841197 -.00000036 +00000-0 +18168-4 0  9990
2 26931 067.0505 128.3750 0007453 271.2922 088.7325 14.30552446937945
SAUDISAT 1C
1 27607U 02058C   19260.83877288 -.00000026  00000-0  17150-4 0  9993
2 27607  64.5544 130.9254 0076942 238.8558 120.4983 14.75571618900486
CUTE-1
1 27844U 03031E   19260.62065161  .00000025  00000-0  31104-4 0  9997
2 27844  98.6853 267.4779 0010772 124.1856 236.0344 14.22194501841219
CUBESAT XI 4
1 27848U 03031J   19260.56834141 +.00000017 +00000-0 +27346-4 0  9990
2 27848 098.6929 267.9454 0010517 135.0173 225.1858 14.21787700841028
MOZHAYETS 4
1 27939U 03042A   19260.84465818  .00000115  00000-0  29230-4 0  9998
2 27939  98.0537  34.9494 0013791 135.2379 224.9941 14.66802690853906
CUBESAT XI 5
1 28895U 05043F   19260.36143044 +.00000079 +00000-0 +23996-4 0  9996
2 28895 097.9724 040.0507 0018034 067.6887 292.6225 14.63690388740519
CUTE-1.7+APD II
1 32785U 08021C   19260.78372513 +.00000145 +00000-0 +21274-4 0  9990
2 32785 097.5543 256.2216 0012180 327.1539 032.8920 14.88344263617164
DELFI C3
1 32789U 08021G   19260.71562577 +.00000453 +00000-0 +34183-4 0  9993
2 32789 097.4564 307.6018 0012622 166.6559 193.5005 15.07109567620576
SEEDS
1 32791U 08021J   19260.78278690 +.00000128 +00000-0 +18326-4 0  9993
2 32791 097.5306 262.2802 0011915 298.1172 061.8842 14.90868481617601
YUBELEINY
1 32953U 08025A   19260.67179723  .00000020  00000-0  75656-4 0  9992
2 32953  82.4986  88.1829 0018786 292.5310  67.3780 12.43091208513616
PRISM (HITOMI)
1 33493U 09002B   19260.85280166 +.00000251 +00000-0 +27520-4 0  9995
2 33493 098.1197 185.2630 0014001 239.9459 120.0373 14.96726686578776
KKS-1 (KISEKI)
1 33499U 09002H   19260.82009360 +.00000058 +00000-0 +16560-4 0  9990
2 33499 098.3446 102.4120 0007889 278.3219 081.7094 14.75462038572236
SWISSCUBE
1 35932U 09051B   19260.70303045  .00000098  00000-0  33099-4 0  9992
2 35932  98.5971  69.3880 0006583 242.5589 117.4939 14.56309138530028
BEESAT
1 35933U 09051C   19260.42571809 +.00000072 +00000-0 +27299-4 0  9994
2 35933 098.5990 070.8995 0004686 258.4081 101.6590 14.56395092530010
ITUPSAT 1
1 35935U 09051E   19260.46705304 +.00000061 +00000-0 +25213-4 0  9991
2 35935 098.6100 071.1731 0007005 256.1515 103.8902 14.55551687529813
XIWANG-1 (HOPE-1)
1 36122U 09072B   19260.71331377 -.00000010 +00000-0 +84632-4 0  9991
2 36122 100.0765 258.8255 0007902 133.3167 226.8590 13.16351499468857
TISAT 1
1 36799U 10035E   19260.87708557 +.00000145 +00000-0 +20785-4 0  9994
2 36799 098.1677 056.1192 0013126 142.3204 217.8935 14.91155012498158
JUGNU
1 37839U 11058B   19258.11680575 +.00000309 +00000-0 +22467-4 0  9990
2 37839 019.9604 158.5532 0018945 221.4669 284.6732 14.12658347409665
SRMSAT
1 37841U 11058D   19260.01304828  .00000300  00000-0  19726-4 0  9994
2 37841  19.9708 205.6998 0012080 109.0341 151.4374 14.10638788409461
M-CUBED/EXP-1 PRIME
1 37855U 11061F   19260.78179410 +.00000754 +00000-0 +45574-4 0  9997
2 37855 101.7119 203.1355 0173087 166.6879 193.8986 15.05579629430019
HORYU 2
1 38340U 12025D   19260.63572453 +.00000111 +00000-0 +24153-4 0  9993
2 38340 098.3216 301.9196 0011351 188.0095 172.0934 14.75748305384162
STRAND 1
1 39090U 13009E   19260.63398372 +.00000014 +00000-0 +20181-4 0  9994
2 39090 098.4805 105.0342 0009704 025.3769 334.7891 14.35096831343414
SOMP
1 39134U 13015E   19260.86566868 +.00000705 +00000-0 +41313-4 0  9999
2 39134 064.8620 085.0168 0035663 289.1062 070.6205 15.20315647354070
BEESAT 3
1 39135U 13015F   19260.88424233 +.00000442 +00000-0 +31629-4 0  9998
2 39135 064.8678 104.5491 0033325 299.2983 060.4814 15.17596769353699
BEESAT 2
1 39136U 13015G   19260.89004965 +.00000555 +00000-0 +37799-4 0  9995
2 39136 064.8682 108.6129 0025010 303.8942 055.9804 15.17016347353616
CUBEBUG 1
1 39153U 13018D   19260.79638133  .00000152  00000-0  26797-4 0  9995
2 39153  97.9807 358.4212 0015578 262.5551  97.3891 14.80594307345291
ZACUBE
1 39417U 13066B   19260.57000638 +.00000140 +00000-0 +23781-4 0  9997
2 39417 097.5627 268.9653 0060501 095.9389 264.8724 14.81147228314498
TRITON 1
1 39427U 13066M   19260.86815266 +.00000132 +00000-0 +29312-4 0  9998
2 39427 097.6864 232.6600 0112521 233.1786 125.9058 14.67878226311521
GOMX 1
1 39430U 13066Q   19260.81897711  .00000157  00000-0  37712-4 0  9992
2 39430  97.7537 211.4060 0150906 327.4204  31.7757 14.59284386309895
HUMSAT D
1 39433U 13066T   19260.67584508  .00000442  00000-0  48287-4 0  9992
2 39433  97.5454 304.4252 0030611   0.1141   0.0080 14.92248397316643
CUBEBUG 2
1 39440U 13066AA  19260.87186020 +.00000137 +00000-0 +25845-4 0  9995
2 39440 097.6075 253.9496 0081008 147.8298 212.7892 14.75884802312228
FUNCUBE 1
1 39444U 13066AE  19260.58775075 +.00000179 +00000-0 +28144-4 0  9992
2 39444 097.5602 271.0142 0059659 089.4950 271.3099 14.81972809312805
UWE-3
1 39446U 13066AG  19260.58451714 +.00000132 +00000-0 +24059-4 0  9995
2 39446 097.5843 260.7950 0071313 122.7562 238.0549 14.78419759312106
SPROUT
1 39770U 14029E   19260.85468944  .00000389  00000-0  49117-4 0  9994
2 39770  97.8878   3.5764 0009254 139.7163 220.4741 14.87419570288385
UNISAT 6
1 40012U 14033C   19260.84431172 +.00000115 +00000-0 +24463-4 0  9996
2 40012 097.7447 123.4733 0058607 162.3988 197.9270 14.74006103282118
DUCHIFAT 1
1 40021U 14033M   19260.83540687 +.00000218 +00000-0 +28029-4 0  9993
2 40021 097.9228 185.7296 0014262 107.0399 253.2382 14.90680432285128
QB50P1
1 40025U 14033R   19260.75922417 +.00000161 +00000-0 +23133-4 0  9991
2 40025 097.9029 180.2872 0013697 116.6265 243.6357 14.88980940284364
CHUBUSAT 1
1 40300U 14070C   19260.78651220  .00000521  00000-0  25597-4 0  9998
2 40300  97.3212 332.6391 0021057  93.9540  54.0068 15.22168313269872
NUDT-PHONESAT
1 40900U 15049B   19260.77730300  .00001258  00000-0  56405-4 0  9997
2 40900  97.4361 269.2286 0011633 220.3417 226.7584 15.23032039221527
ZDPS 2A
1 40901U 15049C   19260.91569642 +.00000510 +00000-0 +28508-4 0  9996
2 40901 097.4609 265.4302 0011803 243.8552 177.0552 15.17828620221074
ZDPS 2B
1 40902U 15049D   19260.83047545  .00000607  00000-0  33429-4 0  9996
2 40902  97.4559 262.7696 0011927 241.9239 240.1293 15.17678308221039
XW-2A
1 40903U 15049E   19260.76941486  .00001297  00000-0  32283-4 0  9999
2 40903  97.3291 304.0182 0013614 168.9086 326.4351 15.42084907224282
KAITUO 1A
1 40904U 15049F   19260.79670459  .00000536  00000-0  31843-4 0  9998
2 40904  97.4692 261.2597 0013003 251.8551 232.7372 15.15430661220790
OBJECT G
1 40905U 15049G   19260.80930850  .00000431  00000-0  27061-4 0  9996
2 40905  97.4739 258.7286 0014254 245.7279 237.2798 15.14342321220669
XW-2C
1 40906U 15049H   19260.89922271  .00000126  00000-0  10100-4 0  9991
2 40906  97.4701 261.4809 0013236 241.7624 179.9852 15.15747401220819
XW-2D
1 40907U 15049J   19260.93208869 +.00000589 +00000-0 +34149-4 0  9999
2 40907 097.4680 261.1937 0012683 237.7337 187.7416 15.15944417220837
LILACSAT 2
1 40908U 15049K   19260.81745751  .00000289  00000-0  19578-4 0  9999
2 40908  97.4808 259.8127 0014389 246.8633 235.6932 15.13846798220590
XW-2F
1 40910U 15049M   19260.81780299  .00000749  00000-0  40775-4 0  9992
2 40910  97.4644 263.2141 0013361 229.4167 254.8609 15.17414967220838
XW-2B
1 40911U 15049N   19260.77808601  .00000231  00000-0  15530-4 0  9993
2 40911  97.4701 261.7073 0012493 239.0366 225.3479 15.15870348220704
KAITUO 1B
1 40912U 15049P   19260.90016388 +.00000600 +00000-0 +31258-4 0  9997
2 40912 097.4504 267.0800 0013810 209.2961 234.9167 15.19739571221164
TIANWANG 1C (TW-1C)
1 40926U 15051B   19260.81645234  .00009332  00000-0  12908-3 0  9994
2 40926  97.1266 306.9191 0008980  43.6575  45.5758 15.57294612224338
TIANWANG 1B (TW-1B)
1 40927U 15051C   19260.86963517  .00009090  00000-0  13379-3 0  9991
2 40927  97.1303 306.1584 0009310  54.3574  33.1991 15.55613684224182
